Total_Precipitation_Accumulation
0.02 0.01 0.00 0.00 0.00 0.00 0.00 0.00 0.01 0.00 0.00 0.00 0.00 0.00 0.00 0.00 0.00 0.00 0.00 0.00 0.00 0.00 0.00 0.00 0.00 0.00 0.01 0.09 0.13 0.16 0.18 0.16 0.15 0.17 0.14 0.13 0.13 0.08 0.07 0.04 0.04 0.07 0.09 0.11
0.00 0.00 0.00 0.00 0.00 0.00 0.00 0.00 0.00 0.00 0.00 0.00 0.00 0.00 0.00 0.00 0.00 0.00 0.00 0.00 0.00 0.00 0.00 0.00 0.00 0.00 0.02 0.06 0.09 0.07 0.10 0.11 0.10 0.11 0.13 0.10 0.09 0.10 0.06 0.05 0.07 0.06 0.06 0.07
0.02 0.00 0.00 0.01 0.00 0.00 0.00 0.00 0.00 0.00 0.00 0.00 0.00 0.00 0.00 0.00 0.00 0.00 0.00 0.00 0.00 0.00 0.02 0.11 0.04 0.02 0.01 0.04 0.05 0.06 0.08 0.06 0.07 0.10 0.09 0.10 0.08 0.09 0.14 0.14 0.12 0.09 0.09 0.07
0.08 0.03 0.11 0.04 0.00 0.00 0.00 0.00 0.00 0.00 0.00 0.00 0.00 0.00 0.00 0.00 0.00 0.00 0.00 0.00 0.00 0.00 0.08 0.06 0.01 0.01 0.01 0.02 0.02 0.02 0.03 0.03 0.04 0.07 0.07 0.05 0.05 0.04 0.07 0.12 0.13 0.10 0.09 0.11
0.16 0.08 0.05 0.00 0.00 0.00 0.00 0.00 0.00 0.00 0.00 0.00 0.00 0.00 0.00 0.00 0.00 0.00 0.00 0.00 0.00 0.00 0.00 0.00 0.00 0.00 0.00 0.00 0.00 0.01 0.02 0.02 0.03 0.03 0.04 0.04 0.05 0.07 0.05 0.07 0.09 0.08 0.09 0.09
0.31 0.20 0.07 0.00 0.00 0.00 0.00 0.00 0.00 0.00 0.00 0.00 0.00 0.00 0.00 0.00 0.00 0.00 0.00 0.00 0.00 0.00 0.00 0.00 0.00 0.00 0.00 0.00 0.00 0.00 0.01 0.02 0.01 0.01 0.01 0.03 0.03 0.03 0.03 0.04 0.07 0.06 0.07 0.07
0.30 0.26 0.05 0.00 0.00 0.01 0.03 0.02 0.00 0.00 0.00 0.00 0.00 0.00 0.00 0.00 0.00 0.00 0.00 0.00 0.00 0.00 0.00 0.00 0.00 0.00 0.00 0.00 0.00 0.00 0.00 0.00 0.01 0.01 0.02 0.03 0.05 0.04 0.04 0.04 0.05 0.07 0.07 0.07
0.32 0.29 0.11 0.02 0.10 0.15 0.06 0.01 0.00 0.00 0.00 0.00 0.00 0.00 0.00 0.00 0.00 0.00 0.00 0.00 0.00 0.00 0.00 0.00 0.00 0.00 0.00 0.00 0.00 0.00 0.00 0.01 0.02 0.05 0.06 0.06 0.05 0.06 0.08 0.08 0.08 0.07 0.07 0.09
0.08 0.06 0.02 0.05 0.10 0.10 0.08 0.06 0.04 0.01 0.00 0.00 0.00 0.00 0.00 0.00 0.00 0.00 0.00 0.00 0.00 0.00 0.00 0.00 0.00 0.00 0.00 0.00 0.00 0.00 0.01 0.02 0.04 0.05 0.06 0.06 0.08 0.10 0.11 0.10 0.09 0.09 0.08 0.08
0.07 0.03 0.02 0.03 0.04 0.01 0.00 0.01 0.01 0.01 0.01 0.02 0.02 0.01 0.01 0.00 0.00 0.00 0.00 0.00 0.00 0.00 0.00 0.00 0.00 0.00 0.00 0.01 0.02 0.02 0.02 0.01 0.02 0.04 0.09 0.06 0.08 0.08 0.09 0.08 0.08 0.10 0.12 0.13
0.03 0.01 0.01 0.01 0.02 0.06 0.04 0.01 0.00 0.01 0.00 0.01 0.00 0.01 0.01 0.01 0.01 0.00 0.00 0.00 0.00 0.00 0.00 0.00 0.01 0.01 0.03 0.04 0.04 0.04 0.04 0.05 0.04 0.04 0.06 0.04 0.06 0.11 0.12 0.12 0.16 0.12 0.10 0.10
0.07 0.03 0.02 0.01 0.00 0.00 0.00 0.01 0.01 0.01 0.01 0.02 0.01 0.00 0.00 0.00 0.00 0.00 0.00 0.00 0.00 0.00 0.00 0.01 0.02 0.02 0.02 0.01 0.03 0.05 0.06 0.06 0.10 0.08 0.06 0.06 0.07 0.11 0.15 0.14 0.16 0.14 0.17 0.17
0.02 0.01 0.02 0.03 0.03 0.01 0.01 0.01 0.00 0.01 0.01 0.02 0.03 0.01 0.01 0.01 0.01 0.01 0.00 0.00 0.00 0.01 0.03 0.03 0.04 0.05 0.11 0.15 0.12 0.10 0.09 0.09 0.08 0.07 0.06 0.04 0.04 0.05 0.09 0.22 0.32 0.43 0.50 0.52
0.04 0.03 0.03 0.02 0.02 0.01 0.01 0.01 0.02 0.01 0.01 0.01 0.02 0.01 0.01 0.00 0.00 0.00 0.00 0.01 0.01 0.01 0.03 0.05 0.11 0.22 0.35 0.49 0.59 0.69 0.77 0.82 0.75 0.65 0.51 0.46 0.46 0.47 0.49 0.52 0.55 0.61 0.54 0.40
0.05 0.06 0.04 0.03 0.03 0.03 0.02 0.03 0.04 0.05 0.05 0.05 0.04 0.03 0.02 0.01 0.01 0.00 0.00 0.00 0.00 0.02 0.06 0.11 0.16 0.24 0.35 0.43 0.53 0.63 0.71 0.79 0.78 0.77 0.71 0.62 0.52 0.47 0.43 0.40 0.36 0.36 0.36 0.32
0.01 0.02 0.05 0.06 0.05 0.03 0.03 0.03 0.02 0.02 0.02 0.03 0.03 0.02 0.02 0.02 0.02 0.01 0.01 0.01 0.01 0.03 0.05 0.07 0.12 0.17 0.16 0.17 0.22 0.30 0.43 0.54 0.51 0.55 0.61 0.55 0.51 0.45 0.42 0.38 0.34 0.31 0.29 0.26
0.01 0.00 0.01 0.05 0.06 0.05 0.06 0.08 0.08 0.07 0.05 0.04 0.05 0.04 0.03 0.03 0.04 0.05 0.05 0.04 0.03 0.05 0.06 0.11 0.25 0.31 0.35 0.44 0.51 0.64 0.69 0.74 0.69 0.61 0.58 0.53 0.44 0.37 0.31 0.26 0.24 0.22 0.23 0.22
0.01 0.01 0.02 0.03 0.04 0.05 0.06 0.06 0.07 0.08 0.11 0.12 0.11 0.11 0.12 0.13 0.15 0.14 0.15 0.11 0.09 0.18 0.37 0.52 0.57 0.59 0.64 0.68 0.64 0.64 0.59 0.56 0.50 0.45 0.40 0.35 0.31 0.25 0.22 0.20 0.17 0.14 0.12 0.09
0.03 0.04 0.05 0.06 0.08 0.09 0.09 0.11 0.13 0.13 0.15 0.16 0.17 0.22 0.22 0.24 0.25 0.34 0.39 0.41 0.53 0.60 0.94 0.82 0.70 0.63 0.63 0.61 0.47 0.41 0.36 0.30 0.25 0.23 0.21 0.19 0.17 0.15 0.13 0.11 0.10 0.09 0.07 0.06
0.04 0.05 0.04 0.05 0.06 0.07 0.09 0.12 0.12 0.15 0.22 0.21 0.23 0.32 0.44 0.65 0.69 0.73 0.63 0.65 0.75 0.81 0.79 0.66 0.47 0.38 0.35 0.30 0.21 0.17 0.16 0.15 0.13 0.13 0.11 0.09 0.07 0.07 0.06 0.05 0.05 0.05 0.05 0.04
0.18 0.17 0.17 0.17 0.20 0.23 0.27 0.33 0.25 0.35 0.53 0.53 0.46 0.58 0.64 0.78 0.75 0.70 0.57 0.54 0.73 0.59 0.46 0.38 0.29 0.25 0.18 0.15 0.11 0.09 0.07 0.05 0.04 0.04 0.03 0.04 0.04 0.03 0.03 0.02 0.02 0.02 0.02 0.02
0.32 0.30 0.33 0.33 0.26 0.35 0.44 0.43 0.36 0.43 0.48 0.50 0.52 0.54 0.47 0.57 0.52 0.46 0.45 0.41 0.47 0.34 0.25 0.20 0.16 0.11 0.07 0.05 0.04 0.04 0.03 0.03 0.02 0.02 0.01 0.00 0.01 0.00 0.01 0.00 0.01 0.01 0.02 0.01
0.39 0.37 0.36 0.36 0.34 0.38 0.39 0.38 0.41 0.34 0.37 0.41 0.41 0.43 0.37 0.40 0.38 0.26 0.27 0.31 0.21 0.16 0.11 0.09 0.05 0.03 0.03 0.03 0.02 0.01 0.01 0.00 0.00 0.00 0.01 0.01 0.01 0.01 0.01 0.01 0.01 0.01 0.01 0.01
0.40 0.37 0.38 0.39 0.28 0.19 0.27 0.42 0.33 0.32 0.29 0.29 0.28 0.26 0.18 0.14 0.17 0.15 0.12 0.11 0.07 0.04 0.02 0.01 0.00 0.00 0.00 0.01 0.00 0.00 0.00 0.00 0.01 0.01 0.01 0.01 0.01 0.01 0.02 0.01 0.01 0.01 0.02 0.01
0.33 0.31 0.31 0.28 0.23 0.30 0.29 0.29 0.19 0.18 0.13 0.12 0.12 0.10 0.08 0.05 0.06 0.08 0.03 0.02 0.01 0.02 0.00 0.00 0.00 0.00 0.00 0.01 0.01 0.00 0.00 0.00 0.01 0.01 0.01 0.01 0.01 0.01 0.01 0.01 0.01 0.01 0.01 0.01
0.23 0.22 0.22 0.19 0.19 0.16 0.13 0.08 0.08 0.08 0.03 0.04 0.07 0.06 0.05 0.03 0.02 0.02 0.01 0.01 0.01 0.02 0.02 0.02 0.01 0.00 0.00 0.01 0.01 0.00 0.01 0.01 0.01 0.01 0.01 0.01 0.01 0.01 0.01 0.01 0.01 0.01 0.01 0.01
0.15 0.14 0.10 0.07 0.06 0.04 0.03 0.02 0.02 0.04 0.04 0.03 0.05 0.04 0.03 0.02 0.02 0.02 0.02 0.01 0.02 0.01 0.02 0.02 0.02 0.01 0.01 0.00 0.00 0.01 0.01 0.01 0.01 0.01 0.01 0.01 0.01 0.01 0.01 0.01 0.01 0.01 0.00 0.00